| time (UTC) | temp F | wind direction | speed MPH | gust MPH | rain 1hr in | rain 24hr in | rain mn in | humidity % | barometer mb |
| 20260503173045 | 56 | 323 | 5.0 | 13.0 | 0.00 | 0.00 | 0.00 | 37 | 1004.3 |
| 20260503171527 | 55 | 324 | 8.0 | 17.0 | 0.00 | 0.00 | 0.00 | 38 | 1004.5 |
| 20260503081516 | 37 | 136 | 0.0 | 0.0 | 0.00 | 0.00 | 0.00 | 76 | 1006.8 |
| 20260503071613 | 40 | 123 | 0.0 | 0.0 | 0.00 | 0.00 | 0.00 | 63 | 1007.1 |
| 20260503070104 | 41 | 123 | 0.0 | 0.0 | 0.00 | 0.00 | 0.00 | 59 | 1007.2 |
| 20260503060112 | 43 | 123 | 2.0 | 3.0 | 0.00 | 0.00 | 0.00 | 57 | 1007.8 |
| 20260503054547 | 43 | 121 | 1.0 | 2.0 | 0.00 | 0.00 | 0.00 | 53 | 1008.0 |
| 20260503053047 | 43 | 149 | 2.0 | 3.0 | 0.00 | 0.00 | 0.00 | 54 | 1008.2 |
| 20260503051543 | 43 | 149 | 0.0 | 1.0 | 0.00 | 0.00 | 0.00 | 54 | 1008.3 |
| 20260503050043 | 44 | 149 | 2.0 | 3.0 | 0.00 | 0.00 | 0.00 | 52 | 1008.4 |
| 20260503044607 | 44 | 149 | 0.0 | 0.0 | 0.00 | 0.00 | 0.00 | 52 | 1008.5 |
| 20260503043039 | 44 | 149 | 2.0 | 5.0 | 0.00 | 0.00 | 0.00 | 51 | 1008.5 |
| 20260503041540 | 44 | 143 | 2.0 | 6.0 | 0.00 | 0.00 | 0.00 | 50 | 1008.5 |
| 20260503040038 | 44 | 148 | 5.0 | 9.0 | 0.00 | 0.00 | 0.00 | 50 | 1008.7 |
| 20260503034535 | 45 | 106 | 2.0 | 4.0 | 0.00 | 0.00 | 0.00 | 50 | 1009.0 |
| 20260503033038 | 45 | 153 | 5.0 | 8.0 | 0.00 | 0.00 | 0.00 | 48 | 1009.2 |
| 20260503031533 | 45 | 146 | 4.0 | 7.0 | 0.00 | 0.00 | 0.00 | 49 | 1009.6 |
| 20260503030037 | 46 | 110 | 1.0 | 4.0 | 0.00 | 0.00 | 0.00 | 46 | 1009.7 |
| 20260503024532 | 46 | 123 | 1.0 | 3.0 | 0.00 | 0.00 | 0.00 | 47 | 1009.7 |
| 20260503023040 | 46 | 141 | 2.0 | 7.0 | 0.00 | 0.00 | 0.00 | 46 | 1009.6 |
| 20260503021530 | 47 | 144 | 5.0 | 11.0 | 0.00 | 0.00 | 0.00 | 45 | 1009.6 |
| 20260503020035 | 48 | 156 | 2.0 | 9.0 | 0.00 | 0.00 | 0.00 | 46 | 1009.7 |
| 20260503014529 | 49 | 172 | 4.0 | 10.0 | 0.00 | 0.00 | 0.00 | 46 | 1009.4 |
| 20260503013029 | 50 | 148 | 6.0 | 11.0 | 0.00 | 0.00 | 0.00 | 45 | 1009.5 |
| 20260503011532 | 51 | 119 | 7.0 | 12.0 | 0.00 | 0.00 | 0.00 | 45 | 1009.4 |
| 20260503010027 | 52 | 159 | 4.0 | 9.0 | 0.00 | 0.00 | 0.00 | 44 | 1009.6 |
| 20260503004527 | 52 | 157 | 6.0 | 11.0 | 0.00 | 0.00 | 0.00 | 43 | 1009.7 |
| 20260503003032 | 53 | 160 | 4.0 | 10.0 | 0.00 | 0.00 | 0.00 | 43 | 1009.9 |
| 20260503001524 | 54 | 163 | 5.0 | 10.0 | 0.00 | 0.00 | 0.00 | 42 | 1010.0 |
| 20260503000029 | 55 | 139 | 10.0 | 13.0 | 0.00 | 0.00 | 0.00 | 41 | 1010.2 |
| 20260502234542 | 55 | 338 | 2.0 | 3.0 | 0.00 | 0.00 | 0.00 | 40 | 1010.2 |
| 20260502233021 | 55 | 304 | 1.0 | 3.0 | 0.00 | 0.00 | 0.00 | 40 | 1010.5 |
| 20260502231526 | 55 | 239 | 2.0 | 7.0 | 0.00 | 0.00 | 0.00 | 41 | 1010.6 |
| 20260502230022 | 55 | 240 | 2.0 | 7.0 | 0.00 | 0.00 | 0.00 | 41 | 1010.8 |
| 20260502224518 | 57 | 192 | 1.0 | 4.0 | 0.00 | 0.00 | 0.00 | 36 | 1010.9 |
| 20260502223033 | 57 | 278 | 0.0 | 3.0 | 0.00 | 0.00 | 0.00 | 38 | 1011.0 |
| 20260502221512 | 56 | 276 | 1.0 | 7.0 | 0.00 | 0.00 | 0.00 | 41 | 1011.2 |
| 20260502220012 | 56 | 291 | 2.0 | 4.0 | 0.00 | 0.00 | 0.00 | 36 | 1011.3 |
| 20260502214509 | 57 | 263 | 3.0 | 10.0 | 0.00 | 0.00 | 0.00 | 34 | 1011.4 |
| 20260502213006 | 57 | 259 | 6.0 | 12.0 | 0.00 | 0.00 | 0.00 | 35 | 1011.7 |
| 20260502211503 | 56 | 254 | 4.0 | 11.0 | 0.00 | 0.00 | 0.00 | 36 | 1011.9 |
| 20260502210001 | 56 | 275 | 5.0 | 12.0 | 0.00 | 0.00 | 0.00 | 34 | 1012.2 |
| 20260502204600 | 57 | 304 | 6.0 | 12.0 | 0.00 | 0.00 | 0.00 | 32 | 1012.2 |
| 20260502203114 | 56 | 265 | 7.0 | 13.0 | 0.00 | 0.00 | 0.00 | 31 | 1012.5 |
| 20260502201553 | 55 | 286 | 3.0 | 11.0 | 0.00 | 0.00 | 0.00 | 35 | 1012.9 |
| 20260502200056 | 54 | 284 | 4.0 | 10.0 | 0.00 | 0.00 | 0.00 | 34 | 1013.2 |
| 20260502194552 | 54 | 266 | 2.0 | 9.0 | 0.00 | 0.00 | 0.00 | 35 | 1013.4 |
| 20260502193049 | 54 | 266 | 6.0 | 12.0 | 0.00 | 0.00 | 0.00 | 35 | 1013.5 |
| 20260502191548 | 55 | 288 | 5.0 | 9.0 | 0.00 | 0.00 | 0.00 | 34 | 1013.9 |
| 20260502190044 | 54 | 244 | 6.0 | 10.0 | 0.00 | 0.00 | 0.00 | 35 | 1014.3 |
| 20260502184540 | 53 | 286 | 5.0 | 13.0 | 0.00 | 0.00 | 0.00 | 35 | 1014.5 |
| 20260502183038 | 53 | 298 | 4.0 | 13.0 | 0.00 | 0.00 | 0.00 | 38 | 1014.5 |
| 20260502181535 | 52 | 246 | 6.0 | 12.0 | 0.00 | 0.00 | 0.00 | 35 | 1014.7 |